Regional Weather Roundup
Issued by NWS

Home | Current Version | Previous Version | Text Only | Print | Product List | Glossary On
Versions: 1 2 3 4 5 6 7 8 9 10 11 12 13 14 15 16 17 18 19 20 21 22 23 24 25 26 27 28 29 30 31 32 33 34 35 36 37 38 39 40 41 42 43 44 45 46 47 48 49 50
000
ASUS43 KLSX 221557
RWRMO

WEATHER SUMMARY FOR MISSOURI
NATIONAL WEATHER SERVICE SPRINGFIELD MO
1000 AM CST THU FEB 22 2018

NOTE: "FAIR" INDICATES FEW OR NO CLOUDS BELOW 12,000 FEET WITH NO
       SIGNIFICANT WEATHER AND/OR OBSTRUCTIONS TO VISIBILITY.
       CURRENT SKY AND/OR WEATHER CONDITIONS ARE NOT AVAILABLE FOR
       CHILLICOTHE AND FARMINGTON.

MOZ001>031-035>038-043-044-053-054-221700-
...NORTHERN AND WESTERN MISSOURI...

CITY           SKY/WX    TMP DP  RH WIND       PRES   REMARKS
KANSAS CTY INT CLOUDY    29  27  92 E7        30.40R FOG     WCI  22
LEE`S SUMMIT   CLOUDY    29  29 100 E6        30.38R FOG     WCI  23
ST JOSEPH      CLOUDY    29  28  96 E10       30.40R WCI  20
CHILLICOTHE      N/A     30  28  92 E9        30.41F WCI  22
KIRKSVILLE     CLOUDY    29  29 100 NE12      30.42S FOG     WCI  19

$$
MOZ066>068-077>081-088>096-101>105-221700-
...SOUTHWEST MISSOURI...

CITY           SKY/WX    TMP DP  RH WIND       PRES   REMARKS
SPRINGFIELD    CLOUDY    37  36  96 SE8       30.30F
JOPLIN         CLOUDY    35  34  96 CALM      30.34F
BRANSON        FOG       32  32 100 SE5       30.33F VSB 3/4 WCI  27

$$
MOZ032>034-039>042-045>050-055>058-069>072-221700-
...CENTRAL MISSOURI...

CITY           SKY/WX    TMP DP  RH WIND       PRES   REMARKS
COLUMBIA       NOT AVBL
JEFFERSON CITY CLOUDY    34  32  92 E8        30.42S WCI  27
ROLLA          CLOUDY    33  33 100 E7        30.39F FOG     WCI  27
SEDALIA        CLOUDY    32  32 100 E12       30.37F FOG     WCI  23
WARRENSBURG    CLOUDY    32  30  93 NE3       30.37F FOG

$$
MOZ051-052-059>065-221700-
...EAST CENTRAL MISSOURI...

CITY           SKY/WX    TMP DP  RH WIND       PRES   REMARKS
ST LOUIS INTL  DRIZZLE   37  37 100 CALM      30.40F FOG

$$
MOZ072>076-082>087-097>100-106>115-221700-
...SOUTH CENTRAL AND SOUTHEAST MISSOURI...

CITY           SKY/WX    TMP DP  RH WIND       PRES   REMARKS
CAPE GIRARDEAU CLOUDY    42  39  89 N7        30.38S
POPLAR BLUFF   CLOUDY    41  38  89 N7        30.39S
WEST PLAINS    FOG       35  34  96 NE7       30.36S VSB 1/4 WCI  29

$$



USA.gov is the U.S. government's official web portal to all federal, state and local government web resources and services.